Time,TemperatureF,DewpointF,PressureIn,WindDirection,WindDirectionDegrees,WindSpeedMPH,WindSpeedGustMPH,Humidity,HourlyPrecipIn,Conditions,Clouds,dailyrainin,SolarRadiationWatts/m^2,SoftwareType,DateUTC
2013-09-27 00:00:00,49.0,47.6,30.09,North,-999,0.0,0.0,95,0.00,,,-99.99,0,WeatherLink 6.0.3,2013-09-27 04:00:00,
2013-09-27 00:31:00,48.4,47.0,30.09,North,-999,0.0,0.0,95,0.00,,,-99.99,0,WeatherLink 6.0.3,2013-09-27 04:31:00,
2013-09-27 00:32:00,48.3,46.9,30.09,North,5,0.0,0.0,95,0.00,,,0.00,0,Wunderground v.1.15,2013-09-27 04:32:00,
2013-09-27 00:38:00,48.1,46.7,30.09,North,5,0.0,0.0,95,0.00,,,0.00,0,Wunderground v.1.15,2013-09-27 04:38:00,
2013-09-27 00:44:00,48.1,46.7,30.09,North,5,0.0,0.0,95,0.00,,,0.00,0,Wunderground v.1.15,2013-09-27 04:44:00,
2013-09-27 00:50:00,48.0,46.9,30.09,North,5,0.0,0.0,96,0.00,,,0.00,0,Wunderground v.1.15,2013-09-27 04:50:00,
2013-09-27 00:56:00,47.9,46.8,30.10,North,5,0.0,0.0,96,0.00,,,0.00,0,Wunderground v.1.15,2013-09-27 04:56:00,
2013-09-27 01:01:00,47.8,46.7,30.10,North,5,0.0,0.0,96,0.00,,,0.00,0,Wunderground v.1.15,2013-09-27 05:01:00,
2013-09-27 01:06:00,47.7,46.6,30.10,North,5,0.0,0.0,96,0.00,,,0.00,0,Wunderground v.1.15,2013-09-27 05:06:00,
2013-09-27 01:11:00,47.6,46.5,30.10,North,5,0.0,0.0,96,0.00,,,0.00,0,Wunderground v.1.15,2013-09-27 05:11:00,
2013-09-27 01:16:00,47.6,46.5,30.10,North,5,0.0,0.0,96,0.00,,,0.00,0,Wunderground v.1.15,2013-09-27 05:16:00,
2013-09-27 01:21:00,47.4,46.3,30.10,North,5,0.0,0.0,96,0.00,,,0.00,0,Wunderground v.1.15,2013-09-27 05:21:00,
2013-09-27 01:27:00,47.3,46.2,30.10,North,5,0.0,0.0,96,0.00,,,0.00,0,Wunderground v.1.15,2013-09-27 05:27:00,
2013-09-27 01:33:00,47.4,46.3,30.11,North,5,0.0,0.0,96,0.00,,,0.00,0,Wunderground v.1.15,2013-09-27 05:33:00,
2013-09-27 01:39:00,47.3,46.2,30.11,North,5,0.0,0.0,96,0.00,,,0.00,0,Wunderground v.1.15,2013-09-27 05:39:00,
2013-09-27 01:45:00,47.2,46.1,30.11,North,5,0.0,0.0,96,0.00,,,0.00,0,Wunderground v.1.15,2013-09-27 05:45:00,
2013-09-27 01:50:00,46.9,45.8,30.11,North,5,0.0,0.0,96,0.00,,,0.00,0,Wunderground v.1.15,2013-09-27 05:50:00,
2013-09-27 01:56:00,46.8,45.7,30.11,North,5,0.0,0.0,96,0.00,,,0.00,0,Wunderground v.1.15,2013-09-27 05:56:00,
2013-09-27 02:02:00,46.5,45.4,30.11,North,5,0.0,0.0,96,0.00,,,0.00,0,Wunderground v.1.15,2013-09-27 06:02:00,
2013-09-27 02:08:00,46.3,45.2,30.11,North,5,0.0,0.0,96,0.00,,,0.00,0,Wunderground v.1.15,2013-09-27 06:08:00,
2013-09-27 02:14:00,46.1,45.0,30.11,North,5,0.0,0.0,96,0.00,,,0.00,0,Wunderground v.1.15,2013-09-27 06:14:00,
2013-09-27 02:20:00,46.1,45.0,30.11,North,5,0.0,0.0,96,0.00,,,0.00,0,Wunderground v.1.15,2013-09-27 06:20:00,
2013-09-27 02:26:00,46.1,45.0,30.11,North,5,0.0,0.0,96,0.00,,,0.00,0,Wunderground v.1.15,2013-09-27 06:26:00,
2013-09-27 02:32:00,45.9,44.8,30.11,North,5,0.0,0.0,96,0.00,,,0.00,0,Wunderground v.1.15,2013-09-27 06:32:00,
2013-09-27 02:38:00,45.8,44.7,30.11,North,5,0.0,0.0,96,0.00,,,0.00,0,Wunderground v.1.15,2013-09-27 06:38:00,
2013-09-27 02:44:00,45.6,44.5,30.11,North,5,0.0,0.0,96,0.00,,,0.00,0,Wunderground v.1.15,2013-09-27 06:44:00,
2013-09-27 02:49:00,45.5,44.4,30.11,North,5,0.0,0.0,96,0.00,,,0.00,0,Wunderground v.1.15,2013-09-27 06:49:00,
2013-09-27 02:55:00,45.4,44.3,30.11,North,5,0.0,0.0,96,0.00,,,0.00,0,Wunderground v.1.15,2013-09-27 06:55:00,
2013-09-27 03:00:00,45.4,44.3,30.11,North,5,0.0,0.0,96,0.00,,,0.00,0,Wunderground v.1.15,2013-09-27 07:00:00,
2013-09-27 03:06:00,45.3,44.2,30.10,North,5,0.0,0.0,96,0.00,,,0.00,0,Wunderground v.1.15,2013-09-27 07:06:00,
2013-09-27 03:12:00,45.2,44.1,30.11,North,5,0.0,0.0,96,0.00,,,0.00,0,Wunderground v.1.15,2013-09-27 07:12:00,
2013-09-27 03:17:00,45.2,44.1,30.11,North,5,0.0,0.0,96,0.00,,,0.00,0,Wunderground v.1.15,2013-09-27 07:17:00,
2013-09-27 03:23:00,45.1,44.0,30.11,North,5,0.0,0.0,96,0.00,,,0.00,0,Wunderground v.1.15,2013-09-27 07:23:00,
2013-09-27 03:29:00,45.0,43.9,30.11,North,5,0.0,0.0,96,0.00,,,0.00,0,Wunderground v.1.15,2013-09-27 07:29:00,
2013-09-27 03:34:00,45.1,44.0,30.10,North,5,0.0,0.0,96,0.00,,,0.00,0,Wunderground v.1.15,2013-09-27 07:34:00,
2013-09-27 03:40:00,45.1,44.0,30.10,North,5,0.0,0.0,96,0.00,,,0.00,0,Wunderground v.1.15,2013-09-27 07:40:00,
2013-09-27 03:46:00,45.0,43.9,30.10,North,5,0.0,0.0,96,0.00,,,0.00,0,Wunderground v.1.15,2013-09-27 07:46:00,
2013-09-27 03:51:00,45.0,43.9,30.10,North,5,0.0,0.0,96,0.00,,,0.00,0,Wunderground v.1.15,2013-09-27 07:51:00,
2013-09-27 03:53:00,44.9,43.8,30.10,North,5,0.0,0.0,96,0.00,,,0.00,0,Wunderground v.1.15,2013-09-27 07:53:00,
2013-09-27 03:59:00,44.8,43.7,30.11,North,5,0.0,0.0,96,0.00,,,0.00,0,Wunderground v.1.15,2013-09-27 07:59:00,
2013-09-27 04:04:00,44.8,43.7,30.11,North,5,0.0,0.0,96,0.00,,,0.00,0,Wunderground v.1.15,2013-09-27 08:04:00,
2013-09-27 04:11:00,44.7,43.6,30.11,North,5,0.0,0.0,96,0.00,,,0.00,0,Wunderground v.1.15,2013-09-27 08:11:00,
2013-09-27 04:16:00,44.8,43.7,30.11,North,5,0.0,0.0,96,0.00,,,0.00,0,Wunderground v.1.15,2013-09-27 08:16:00,
2013-09-27 04:22:00,44.8,43.7,30.12,North,5,0.0,0.0,96,0.00,,,0.00,0,Wunderground v.1.15,2013-09-27 08:22:00,
2013-09-27 04:27:00,44.8,43.7,30.12,North,5,0.0,0.0,96,0.00,,,0.00,0,Wunderground v.1.15,2013-09-27 08:27:00,
2013-09-27 04:33:00,44.7,43.6,30.12,North,5,0.0,0.0,96,0.00,,,0.00,0,Wunderground v.1.15,2013-09-27 08:33:00,
2013-09-27 04:39:00,44.6,43.5,30.12,North,5,0.0,0.0,96,0.00,,,0.00,0,Wunderground v.1.15,2013-09-27 08:39:00,
2013-09-27 04:44:00,44.6,43.8,30.12,North,5,0.0,0.0,97,0.00,,,0.00,0,Wunderground v.1.15,2013-09-27 08:44:00,
2013-09-27 04:50:00,44.7,43.9,30.12,North,5,0.0,0.0,97,0.00,,,0.00,0,Wunderground v.1.15,2013-09-27 08:50:00,
2013-09-27 04:56:00,44.8,44.0,30.12,North,5,0.0,0.0,97,0.00,,,0.00,0,Wunderground v.1.15,2013-09-27 08:56:00,
2013-09-27 05:01:00,44.8,44.0,30.12,North,-999,0.0,0.0,97,0.00,,,-99.99,0,WeatherLink 6.0.3,2013-09-27 09:01:00,
2013-09-27 05:06:00,44.7,43.9,30.12,North,5,0.0,0.0,97,0.00,,,0.00,0,Wunderground v.1.15,2013-09-27 09:06:00,
2013-09-27 05:12:00,44.6,43.8,30.13,North,5,0.0,0.0,97,0.00,,,0.00,0,Wunderground v.1.15,2013-09-27 09:12:00,
2013-09-27 05:18:00,44.5,43.7,30.13,North,5,0.0,0.0,97,0.00,,,0.00,0,Wunderground v.1.15,2013-09-27 09:18:00,
2013-09-27 05:23:00,44.4,43.3,30.13,North,5,0.0,0.0,96,0.00,,,0.00,0,Wunderground v.1.15,2013-09-27 09:23:00,
2013-09-27 05:29:00,44.3,43.2,30.13,North,5,0.0,0.0,96,0.00,,,0.00,0,Wunderground v.1.15,2013-09-27 09:29:00,
2013-09-27 05:34:00,44.3,43.2,30.13,North,5,0.0,0.0,96,0.00,,,0.00,0,Wunderground v.1.15,2013-09-27 09:34:00,
2013-09-27 05:40:00,44.1,43.0,30.13,North,5,0.0,0.0,96,0.00,,,0.00,0,Wunderground v.1.15,2013-09-27 09:40:00,
2013-09-27 05:46:00,44.0,42.9,30.13,North,5,0.0,0.0,96,0.00,,,0.00,0,Wunderground v.1.15,2013-09-27 09:46:00,
2013-09-27 05:52:00,43.9,43.1,30.13,North,5,0.0,0.0,97,0.00,,,0.00,0,Wunderground v.1.15,2013-09-27 09:52:00,
2013-09-27 05:58:00,44.0,42.9,30.14,North,5,0.0,0.0,96,0.00,,,0.00,0,Wunderground v.1.15,2013-09-27 09:58:00,
2013-09-27 06:04:00,43.9,42.8,30.14,North,5,0.0,0.0,96,0.00,,,0.00,0,Wunderground v.1.15,2013-09-27 10:04:00,
2013-09-27 06:09:00,43.8,42.7,30.14,North,5,0.0,0.0,96,0.00,,,0.01,0,Wunderground v.1.15,2013-09-27 10:09:00,
2013-09-27 06:15:00,43.7,42.6,30.14,North,5,0.0,0.0,96,0.00,,,0.01,0,Wunderground v.1.15,2013-09-27 10:15:00,
2013-09-27 06:22:00,43.5,42.4,30.14,North,5,0.0,0.0,96,0.00,,,0.01,0,Wunderground v.1.15,2013-09-27 10:22:00,
2013-09-27 06:28:00,43.4,42.6,30.14,North,5,0.0,0.0,97,0.00,,,0.01,0,Wunderground v.1.15,2013-09-27 10:28:00,
2013-09-27 06:34:00,43.3,42.2,30.14,North,5,0.0,0.0,96,0.00,,,0.01,0,Wunderground v.1.15,2013-09-27 10:34:00,
2013-09-27 06:40:00,43.2,42.1,30.14,North,5,0.0,0.0,96,0.00,,,0.01,0,Wunderground v.1.15,2013-09-27 10:40:00,
2013-09-27 06:45:00,43.1,42.0,30.15,North,5,0.0,0.0,96,0.00,,,0.01,0,Wunderground v.1.15,2013-09-27 10:45:00,
2013-09-27 06:51:00,43.1,42.0,30.15,North,5,0.0,0.0,96,0.00,,,0.01,0,Wunderground v.1.15,2013-09-27 10:51:00,
2013-09-27 06:57:00,43.0,42.2,30.15,North,5,0.0,0.0,97,0.00,,,0.01,0,Wunderground v.1.15,2013-09-27 10:57:00,
2013-09-27 07:03:00,42.8,42.0,30.15,North,5,0.0,0.0,97,0.00,,,0.01,0,Wunderground v.1.15,2013-09-27 11:03:00,
2013-09-27 07:09:00,42.7,41.9,30.16,North,5,0.0,0.0,97,0.00,,,0.01,0,Wunderground v.1.15,2013-09-27 11:09:00,
2013-09-27 07:15:00,42.6,41.5,30.16,North,5,0.0,0.0,96,0.00,,,0.01,0,Wunderground v.1.15,2013-09-27 11:15:00,
2013-09-27 07:21:00,42.6,41.5,30.16,North,5,0.0,0.0,96,0.00,,,0.01,5,Wunderground v.1.15,2013-09-27 11:21:00,
2013-09-27 07:27:00,42.6,41.8,30.17,North,5,0.0,0.0,97,0.00,,,0.01,7,Wunderground v.1.15,2013-09-27 11:27:00,
2013-09-27 07:32:00,42.7,41.9,30.17,North,5,0.0,0.0,97,0.00,,,0.01,9,Wunderground v.1.15,2013-09-27 11:32:00,
2013-09-27 07:38:00,42.8,42.0,30.17,North,5,0.0,0.0,97,0.00,,,0.01,11,Wunderground v.1.15,2013-09-27 11:38:00,
2013-09-27 07:44:00,42.9,42.1,30.17,North,5,0.0,0.0,97,0.00,,,0.01,16,Wunderground v.1.15,2013-09-27 11:44:00,
2013-09-27 07:50:00,43.1,42.3,30.17,North,5,0.0,0.0,97,0.00,,,0.01,21,Wunderground v.1.15,2013-09-27 11:50:00,
2013-09-27 07:56:00,43.5,42.7,30.17,North,5,0.0,0.0,97,0.00,,,0.01,26,Wunderground v.1.15,2013-09-27 11:56:00,
2013-09-27 08:02:00,44.5,43.7,30.17,North,5,0.0,0.0,97,0.00,,,0.01,28,Wunderground v.1.15,2013-09-27 12:02:00,
2013-09-27 08:07:00,45.5,44.7,30.17,North,5,0.0,0.0,97,0.00,,,0.01,30,Wunderground v.1.15,2013-09-27 12:07:00,
2013-09-27 08:12:00,46.6,46.1,30.18,North,5,0.0,0.0,98,0.00,,,0.01,32,Wunderground v.1.15,2013-09-27 12:12:00,
2013-09-27 08:18:00,47.5,47.0,30.18,North,5,0.0,0.0,98,0.00,,,0.01,32,Wunderground v.1.15,2013-09-27 12:18:00,
2013-09-27 08:24:00,48.4,47.9,30.18,North,5,0.0,0.0,98,0.00,,,0.01,33,Wunderground v.1.15,2013-09-27 12:24:00,
2013-09-27 08:30:00,49.4,48.9,30.18,North,5,0.0,0.0,98,0.00,,,0.01,35,Wunderground v.1.15,2013-09-27 12:30:00,
2013-09-27 08:36:00,50.6,50.1,30.18,North,5,0.0,0.0,98,0.00,,,0.01,37,Wunderground v.1.15,2013-09-27 12:36:00,
2013-09-27 08:42:00,51.5,51.0,30.18,North,5,0.0,0.0,98,0.00,,,0.01,39,Wunderground v.1.15,2013-09-27 12:42:00,
2013-09-27 08:47:00,52.3,51.8,30.18,North,5,0.0,0.0,98,0.00,,,0.01,39,Wunderground v.1.15,2013-09-27 12:47:00,
2013-09-27 08:53:00,53.3,52.8,30.18,North,5,0.0,0.0,98,0.00,,,0.01,40,Wunderground v.1.15,2013-09-27 12:53:00,
2013-09-27 08:59:00,54.2,53.6,30.18,NNE,24,0.0,0.0,98,0.00,,,0.01,40,Wunderground v.1.15,2013-09-27 12:59:00,
2013-09-27 09:05:00,55.0,54.4,30.18,NNE,26,0.0,1.0,98,0.00,,,0.01,42,Wunderground v.1.15,2013-09-27 13:05:00,
2013-09-27 09:11:00,55.5,54.9,30.18,NNE,27,0.0,0.0,98,0.00,,,0.01,42,Wunderground v.1.15,2013-09-27 13:11:00,
2013-09-27 09:16:00,56.3,55.7,30.18,NNE,28,0.0,0.0,98,0.00,,,0.01,42,Wunderground v.1.15,2013-09-27 13:16:00,
2013-09-27 09:21:00,57.1,56.3,30.19,NNE,28,0.0,0.0,97,0.00,,,0.01,44,Wunderground v.1.15,2013-09-27 13:21:00,
2013-09-27 09:27:00,58.0,55.7,30.19,ENE,66,0.0,1.0,92,0.00,,,0.01,49,Wunderground v.1.15,2013-09-27 13:27:00,
2013-09-27 09:32:00,58.7,56.1,30.19,NE,46,0.0,1.0,91,0.00,,,0.01,56,Wunderground v.1.15,2013-09-27 13:32:00,
2013-09-27 09:38:00,59.5,55.9,30.19,ESE,117,0.0,3.0,88,0.00,,,0.01,69,Wunderground v.1.15,2013-09-27 13:38:00,
2013-09-27 09:44:00,60.1,55.9,30.19,ESE,105,1.0,1.0,86,0.00,,,0.01,88,Wunderground v.1.15,2013-09-27 13:44:00,
2013-09-27 09:49:00,60.5,56.3,30.19,ESE,107,1.0,2.0,86,0.00,,,0.01,111,Wunderground v.1.15,2013-09-27 13:49:00,
2013-09-27 09:55:00,61.0,56.1,30.19,ESE,109,0.0,2.0,84,0.00,,,0.01,148,Wunderground v.1.15,2013-09-27 13:55:00,
2013-09-27 10:01:00,61.5,56.6,30.19,ESE,112,0.0,4.0,84,0.00,,,-99.99,103,WeatherLink 6.0.3,2013-09-27 14:01:00,
2013-09-27 10:06:00,62.1,56.9,30.19,ESE,102,0.0,2.0,83,0.00,,,0.01,218,Wunderground v.1.15,2013-09-27 14:06:00,
2013-09-27 10:12:00,62.6,57.0,30.19,East,98,0.0,2.0,82,0.00,,,0.01,251,Wunderground v.1.15,2013-09-27 14:12:00,
2013-09-27 10:18:00,63.2,57.3,30.19,ESE,109,0.0,2.0,81,0.00,,,0.01,271,Wunderground v.1.15,2013-09-27 14:18:00,
2013-09-27 10:23:00,63.9,58.0,30.19,East,92,0.0,0.0,81,0.00,,,0.01,288,Wunderground v.1.15,2013-09-27 14:23:00,
2013-09-27 10:29:00,64.5,57.8,30.19,ENE,76,0.0,2.0,79,0.00,,,0.01,316,Wunderground v.1.15,2013-09-27 14:29:00,
2013-09-27 10:35:00,65.0,57.2,30.19,East,89,0.0,2.0,76,0.00,,,0.01,294,Wunderground v.1.15,2013-09-27 14:35:00,
2013-09-27 10:41:00,65.5,57.7,30.19,East,98,0.0,2.0,76,0.00,,,0.01,299,Wunderground v.1.15,2013-09-27 14:41:00,
2013-09-27 10:47:00,65.8,57.7,30.19,East,98,0.0,2.0,75,0.00,,,0.01,294,Wunderground v.1.15,2013-09-27 14:47:00,
2013-09-27 10:53:00,66.2,58.0,30.19,ESE,119,0.0,1.0,75,0.00,,,0.01,304,Wunderground v.1.15,2013-09-27 14:53:00,
2013-09-27 10:59:00,66.7,57.8,30.19,SSE,151,0.0,1.0,73,0.00,,,0.01,315,Wunderground v.1.15,2013-09-27 14:59:00,
2013-09-27 11:05:00,67.1,57.4,30.19,SE,144,1.0,3.0,71,0.00,,,0.01,343,Wunderground v.1.15,2013-09-27 15:05:00,
2013-09-27 11:10:00,67.5,57.0,30.19,NNE,21,1.0,2.0,69,0.00,,,0.01,369,Wunderground v.1.15,2013-09-27 15:10:00,
2013-09-27 11:16:00,68.0,58.6,30.19,ESE,117,0.0,2.0,72,0.00,,,0.01,429,Wunderground v.1.15,2013-09-27 15:16:00,
2013-09-27 11:21:00,68.5,58.3,30.19,SSE,163,0.0,1.0,70,0.00,,,0.01,461,Wunderground v.1.15,2013-09-27 15:21:00,
2013-09-27 11:27:00,69.1,58.5,30.19,SE,132,0.0,2.0,69,0.00,,,0.01,499,Wunderground v.1.15,2013-09-27 15:27:00,
2013-09-27 11:33:00,69.7,58.3,30.19,SE,136,1.0,3.0,67,0.00,,,0.01,541,Wunderground v.1.15,2013-09-27 15:33:00,
2013-09-27 11:39:00,69.6,57.7,30.19,NNE,19,1.0,3.0,66,0.00,,,0.01,550,Wunderground v.1.15,2013-09-27 15:39:00,
2013-09-27 11:46:00,69.3,58.3,30.18,NE,43,1.0,2.0,68,0.00,,,0.01,580,Wunderground v.1.15,2013-09-27 15:46:00,
2013-09-27 11:51:00,69.6,58.2,30.18,ENE,73,0.0,0.0,67,0.00,,,0.01,591,Wunderground v.1.15,2013-09-27 15:51:00,
2013-09-27 11:57:00,70.1,58.2,30.19,SSE,160,1.0,4.0,66,0.00,,,0.01,606,Wunderground v.1.15,2013-09-27 15:57:00,
2013-09-27 12:02:00,70.4,57.6,30.18,NNE,19,1.0,1.0,64,0.00,,,0.01,612,Wunderground v.1.15,2013-09-27 16:02:00,
2013-09-27 12:08:00,70.3,57.5,30.18,North,11,1.0,1.0,64,0.00,,,0.01,617,Wunderground v.1.15,2013-09-27 16:08:00,
2013-09-27 12:13:00,70.4,58.5,30.18,NNW,344,0.0,3.0,66,0.00,,,0.01,624,Wunderground v.1.15,2013-09-27 16:13:00,
2013-09-27 12:19:00,70.6,59.1,30.18,NNE,27,1.0,3.0,67,0.00,,,0.01,633,Wunderground v.1.15,2013-09-27 16:19:00,
2013-09-27 12:25:00,70.8,58.0,30.18,North,5,1.0,2.0,64,0.00,,,0.01,635,Wunderground v.1.15,2013-09-27 16:25:00,
2013-09-27 12:30:00,71.0,58.2,30.18,NE,42,1.0,1.0,64,0.00,,,0.01,647,Wunderground v.1.15,2013-09-27 16:30:00,
2013-09-27 12:36:00,71.2,58.0,30.18,East,88,0.0,2.0,63,0.00,,,0.01,661,Wunderground v.1.15,2013-09-27 16:36:00,
2013-09-27 12:42:00,71.7,58.9,30.18,ESE,102,0.0,0.0,64,0.00,,,0.01,661,Wunderground v.1.15,2013-09-27 16:42:00,
2013-09-27 12:47:00,72.2,59.3,30.18,North,11,0.0,2.0,64,0.00,,,0.01,661,Wunderground v.1.15,2013-09-27 16:47:00,
2013-09-27 12:53:00,72.7,58.5,30.18,ESE,115,1.0,1.0,61,0.00,,,0.01,679,Wunderground v.1.15,2013-09-27 16:53:00,
2013-09-27 12:59:00,72.6,58.8,30.18,South,169,1.0,2.0,62,0.00,,,0.01,691,Wunderground v.1.15,2013-09-27 16:59:00,
2013-09-27 13:04:00,72.7,58.5,30.18,NNE,20,1.0,3.0,61,0.00,,,0.01,701,Wunderground v.1.15,2013-09-27 17:04:00,
2013-09-27 13:11:00,72.8,57.6,30.17,NNE,16,0.0,3.0,59,0.00,,,0.01,738,Wunderground v.1.15,2013-09-27 17:11:00,
2013-09-27 13:16:00,73.0,58.3,30.17,NE,41,1.0,4.0,60,0.00,,,0.01,765,Wunderground v.1.15,2013-09-27 17:16:00,
2013-09-27 13:22:00,73.2,58.5,30.17,SSE,151,2.0,2.0,60,0.00,,,0.01,798,Wunderground v.1.15,2013-09-27 17:22:00,
2013-09-27 13:27:00,73.3,56.2,30.17,SE,145,1.0,2.0,55,0.00,,,0.01,183,Wunderground v.1.15,2013-09-27 17:27:00,
2013-09-27 13:28:00,73.3,56.7,30.17,SE,145,0.0,2.0,56,0.00,,,0.01,190,Wunderground v.1.15,2013-09-27 17:28:00,
2013-09-27 13:34:00,72.9,57.3,30.17,SE,145,0.0,0.0,58,0.00,,,0.01,745,Wunderground v.1.15,2013-09-27 17:34:00,
2013-09-27 13:40:00,73.3,57.6,30.17,SSE,164,0.0,0.0,58,0.00,,,0.01,812,Wunderground v.1.15,2013-09-27 17:40:00,
2013-09-27 13:46:00,73.7,57.0,30.17,ENE,73,1.0,4.0,56,0.00,,,0.01,715,Wunderground v.1.15,2013-09-27 17:46:00,
2013-09-27 13:52:00,73.4,56.7,30.17,ENE,78,1.0,1.0,56,0.00,,,0.01,114,Wunderground v.1.15,2013-09-27 17:52:00,
2013-09-27 13:58:00,72.8,56.2,30.17,NE,36,1.0,4.0,56,0.00,,,0.01,139,Wunderground v.1.15,2013-09-27 17:58:00,
2013-09-27 14:04:00,72.2,56.6,30.16,NE,48,1.0,1.0,58,0.00,,,0.01,132,Wunderground v.1.15,2013-09-27 18:04:00,
2013-09-27 14:09:00,71.9,56.3,30.16,ENE,59,0.0,1.0,58,0.00,,,0.01,116,Wunderground v.1.15,2013-09-27 18:09:00,
2013-09-27 14:15:00,71.6,56.0,30.16,ENE,59,0.0,0.0,58,0.00,,,0.01,98,Wunderground v.1.15,2013-09-27 18:15:00,
2013-09-27 14:21:00,71.3,56.2,30.16,North,11,0.0,0.0,59,0.00,,,0.01,98,Wunderground v.1.15,2013-09-27 18:21:00,
2013-09-27 14:27:00,70.9,56.8,30.16,North,11,0.0,0.0,61,0.00,,,0.01,132,Wunderground v.1.15,2013-09-27 18:27:00,
2013-09-27 14:33:00,70.7,57.0,30.16,North,11,0.0,1.0,62,0.00,,,0.01,489,Wunderground v.1.15,2013-09-27 18:33:00,
2013-09-27 14:39:00,71.1,57.4,30.16,North,11,0.0,1.0,62,0.00,,,0.01,292,Wunderground v.1.15,2013-09-27 18:39:00,
2013-09-27 14:44:00,71.6,57.4,30.16,ESE,121,0.0,1.0,61,0.00,,,0.01,359,Wunderground v.1.15,2013-09-27 18:44:00,
2013-09-27 14:50:00,72.1,55.5,30.16,NE,47,1.0,3.0,56,0.00,,,0.01,320,Wunderground v.1.15,2013-09-27 18:50:00,
2013-09-27 14:56:00,72.6,57.0,30.15,NNE,12,1.0,4.0,58,0.00,,,0.01,374,Wunderground v.1.15,2013-09-27 18:56:00,
2013-09-27 15:01:00,72.9,56.8,30.15,ESE,112,1.0,6.0,57,0.00,,,-99.99,368,WeatherLink 6.0.3,2013-09-27 19:01:00,
2013-09-27 15:06:00,72.8,55.7,30.15,SE,127,2.0,3.0,55,0.00,,,0.01,120,Wunderground v.1.15,2013-09-27 19:06:00,
2013-09-27 15:11:00,72.5,55.9,30.16,East,88,1.0,1.0,56,0.00,,,0.01,105,Wunderground v.1.15,2013-09-27 19:11:00,
2013-09-27 15:17:00,72.2,57.5,30.15,East,99,0.0,1.0,60,0.00,,,0.01,130,Wunderground v.1.15,2013-09-27 19:17:00,
2013-09-27 15:23:00,72.2,56.6,30.15,North,355,1.0,2.0,58,0.00,,,0.01,359,Wunderground v.1.15,2013-09-27 19:23:00,
2013-09-27 15:29:00,72.4,56.3,30.15,NNE,13,1.0,3.0,57,0.00,,,0.01,251,Wunderground v.1.15,2013-09-27 19:29:00,
2013-09-27 15:34:00,72.6,56.0,30.15,NNE,24,1.0,1.0,56,0.00,,,0.01,633,Wunderground v.1.15,2013-09-27 19:34:00,
2013-09-27 15:40:00,73.0,56.9,30.15,North,355,1.0,1.0,57,0.00,,,0.01,647,Wunderground v.1.15,2013-09-27 19:40:00,
2013-09-27 15:46:00,73.3,56.2,30.15,NE,44,1.0,4.0,55,0.00,,,0.01,640,Wunderground v.1.15,2013-09-27 19:46:00,
2013-09-27 15:51:00,73.6,56.4,30.15,North,355,1.0,1.0,55,0.00,,,0.01,649,Wunderground v.1.15,2013-09-27 19:51:00,
2013-09-27 15:57:00,73.6,55.9,30.15,North,5,0.0,1.0,54,0.00,,,0.01,279,Wunderground v.1.15,2013-09-27 19:57:00,
2013-09-27 16:03:00,73.6,55.9,30.15,ENE,64,0.0,1.0,54,0.00,,,0.01,179,Wunderground v.1.15,2013-09-27 20:03:00,
2013-09-27 16:08:00,73.4,56.2,30.15,SSE,152,1.0,3.0,55,0.00,,,0.01,227,Wunderground v.1.15,2013-09-27 20:08:00,
2013-09-27 16:13:00,73.1,56.0,30.15,ESE,105,1.0,1.0,55,0.00,,,0.01,527,Wunderground v.1.15,2013-09-27 20:13:00,
2013-09-27 16:18:00,72.9,55.8,30.15,ESE,107,0.0,1.0,55,0.00,,,0.01,60,Wunderground v.1.15,2013-09-27 20:18:00,
2013-09-27 16:24:00,72.7,56.1,30.14,ESE,123,1.0,3.0,56,0.00,,,0.01,100,Wunderground v.1.15,2013-09-27 20:24:00,
2013-09-27 16:30:00,72.7,55.1,30.14,West,261,0.0,1.0,54,0.00,,,0.01,54,Wunderground v.1.15,2013-09-27 20:30:00,
2013-09-27 16:36:00,72.6,55.5,30.14,NNE,28,1.0,5.0,55,0.00,,,0.01,51,Wunderground v.1.15,2013-09-27 20:36:00,
2013-09-27 16:42:00,72.7,55.6,30.14,East,96,1.0,1.0,55,0.00,,,0.01,51,Wunderground v.1.15,2013-09-27 20:42:00,
2013-09-27 16:48:00,72.6,55.5,30.14,NE,51,0.0,1.0,55,0.00,,,0.01,72,Wunderground v.1.15,2013-09-27 20:48:00,
2013-09-27 16:53:00,72.6,56.0,30.14,East,98,0.0,3.0,56,0.00,,,0.01,105,Wunderground v.1.15,2013-09-27 20:53:00,
2013-09-27 16:59:00,72.5,55.9,30.14,ESE,109,1.0,3.0,56,0.00,,,0.01,56,Wunderground v.1.15,2013-09-27 20:59:00,
2013-09-27 17:05:00,72.4,55.8,30.14,ESE,109,0.0,1.0,56,0.00,,,0.01,76,Wunderground v.1.15,2013-09-27 21:05:00,
2013-09-27 17:11:00,72.4,55.8,30.14,North,11,0.0,0.0,56,0.00,,,0.01,60,Wunderground v.1.15,2013-09-27 21:11:00,
2013-09-27 17:16:00,72.4,56.3,30.14,SE,129,0.0,2.0,57,0.00,,,0.01,44,Wunderground v.1.15,2013-09-27 21:16:00,
2013-09-27 17:22:00,72.4,55.8,30.15,SE,128,0.0,0.0,56,0.00,,,0.01,63,Wunderground v.1.15,2013-09-27 21:22:00,
2013-09-27 17:27:00,72.3,56.2,30.15,SE,127,0.0,0.0,57,0.00,,,0.01,49,Wunderground v.1.15,2013-09-27 21:27:00,
2013-09-27 17:32:00,72.1,56.5,30.15,SE,128,0.0,0.0,58,0.00,,,0.01,72,Wunderground v.1.15,2013-09-27 21:32:00,
2013-09-27 17:38:00,71.7,58.4,30.14,SE,128,0.0,0.0,63,0.00,,,0.01,185,Wunderground v.1.15,2013-09-27 21:38:00,
2013-09-27 17:44:00,71.3,56.7,30.15,NNE,19,0.0,1.0,60,0.00,,,0.01,65,Wunderground v.1.15,2013-09-27 21:44:00,
2013-09-27 17:50:00,71.4,56.3,30.15,North,9,1.0,1.0,59,0.00,,,0.01,56,Wunderground v.1.15,2013-09-27 21:50:00,
2013-09-27 17:56:00,71.5,56.4,30.15,ESE,114,1.0,1.0,59,0.00,,,0.01,95,Wunderground v.1.15,2013-09-27 21:56:00,
2013-09-27 18:02:00,71.6,56.5,30.15,NE,50,1.0,1.0,59,0.00,,,0.01,37,Wunderground v.1.15,2013-09-27 22:02:00,
2013-09-27 18:08:00,71.5,56.4,30.15,East,99,1.0,2.0,59,0.00,,,0.01,35,Wunderground v.1.15,2013-09-27 22:08:00,
2013-09-27 18:13:00,71.5,56.9,30.15,NE,52,0.0,0.0,60,0.00,,,0.01,32,Wunderground v.1.15,2013-09-27 22:13:00,
2013-09-27 18:19:00,71.3,56.7,30.15,ENE,58,0.0,0.0,60,0.00,,,0.01,25,Wunderground v.1.15,2013-09-27 22:19:00,
2013-09-27 18:24:00,71.0,57.3,30.15,ENE,58,0.0,0.0,62,0.00,,,0.01,23,Wunderground v.1.15,2013-09-27 22:24:00,
2013-09-27 18:30:00,70.4,58.1,30.15,ENE,58,0.0,0.0,65,0.00,,,0.01,21,Wunderground v.1.15,2013-09-27 22:30:00,
2013-09-27 18:36:00,69.5,61.2,30.16,ENE,58,0.0,0.0,75,0.00,,,0.01,18,Wunderground v.1.15,2013-09-27 22:36:00,
2013-09-27 18:41:00,68.4,61.3,30.15,ENE,58,0.0,0.0,78,0.00,,,0.01,16,Wunderground v.1.15,2013-09-27 22:41:00,
2013-09-27 18:46:00,67.4,60.7,30.15,ENE,58,0.0,0.0,79,0.00,,,0.01,14,Wunderground v.1.15,2013-09-27 22:46:00,
2013-09-27 18:52:00,66.3,60.3,30.16,ENE,58,0.0,0.0,81,0.00,,,0.01,11,Wunderground v.1.15,2013-09-27 22:52:00,
2013-09-27 18:58:00,65.3,59.7,30.16,ENE,58,0.0,0.0,82,0.00,,,0.01,9,Wunderground v.1.15,2013-09-27 22:58:00,
2013-09-27 19:03:00,64.5,59.2,30.16,ENE,58,0.0,0.0,83,0.00,,,0.01,5,Wunderground v.1.15,2013-09-27 23:03:00,
2013-09-27 19:09:00,63.6,58.7,30.16,ENE,58,0.0,0.0,84,0.00,,,0.01,0,Wunderground v.1.15,2013-09-27 23:09:00,
2013-09-27 19:15:00,62.8,58.2,30.16,ENE,58,0.0,0.0,85,0.00,,,0.01,0,Wunderground v.1.15,2013-09-27 23:15:00,
2013-09-27 19:21:00,62.0,57.8,30.16,ENE,58,0.0,0.0,86,0.00,,,0.01,0,Wunderground v.1.15,2013-09-27 23:21:00,
2013-09-27 19:27:00,61.4,57.5,30.16,ENE,58,0.0,0.0,87,0.00,,,0.01,0,Wunderground v.1.15,2013-09-27 23:27:00,
2013-09-27 19:33:00,60.8,56.9,30.16,ENE,58,0.0,0.0,87,0.00,,,0.01,0,Wunderground v.1.15,2013-09-27 23:33:00,
2013-09-27 19:39:00,60.2,56.6,30.16,ENE,58,0.0,0.0,88,0.00,,,0.01,0,Wunderground v.1.15,2013-09-27 23:39:00,
2013-09-27 19:45:00,59.7,56.5,30.16,ENE,58,0.0,0.0,89,0.00,,,0.01,0,Wunderground v.1.15,2013-09-27 23:45:00,
2013-09-27 19:51:00,59.2,56.0,30.16,ENE,58,0.0,0.0,89,0.00,,,0.01,0,Wunderground v.1.15,2013-09-27 23:51:00,
2013-09-27 19:56:00,58.8,55.9,30.17,ENE,58,0.0,0.0,90,0.00,,,0.01,0,Wunderground v.1.15,2013-09-27 23:56:00,
2013-09-27 20:01:00,58.4,55.5,30.17,ENE,58,0.0,0.0,90,0.00,,,0.01,0,Wunderground v.1.15,2013-09-28 00:01:00,
2013-09-27 20:07:00,58.0,55.4,30.17,ENE,58,0.0,0.0,91,0.00,,,0.01,0,Wunderground v.1.15,2013-09-28 00:07:00,
2013-09-27 20:12:00,57.7,55.1,30.17,ENE,58,0.0,0.0,91,0.00,,,0.01,0,Wunderground v.1.15,2013-09-28 00:12:00,
2013-09-27 20:18:00,57.4,54.8,30.17,ENE,58,0.0,0.0,91,0.00,,,0.01,0,Wunderground v.1.15,2013-09-28 00:18:00,
2013-09-27 20:23:00,57.1,54.5,30.17,ENE,58,0.0,0.0,91,0.00,,,0.01,0,Wunderground v.1.15,2013-09-28 00:23:00,
2013-09-27 20:29:00,56.8,54.5,30.17,ENE,58,0.0,0.0,92,0.00,,,0.01,0,Wunderground v.1.15,2013-09-28 00:29:00,
2013-09-27 20:34:00,56.6,54.3,30.17,ENE,58,0.0,0.0,92,0.00,,,0.01,0,Wunderground v.1.15,2013-09-28 00:34:00,
2013-09-27 20:39:00,56.3,54.0,30.17,ENE,58,0.0,0.0,92,0.00,,,0.01,0,Wunderground v.1.15,2013-09-28 00:39:00,
2013-09-27 20:45:00,56.1,53.8,30.17,ENE,58,0.0,0.0,92,0.00,,,0.01,0,Wunderground v.1.15,2013-09-28 00:45:00,
2013-09-27 20:51:00,55.9,53.9,30.18,ENE,58,0.0,0.0,93,0.00,,,0.01,0,Wunderground v.1.15,2013-09-28 00:51:00,
2013-09-27 20:56:00,55.7,53.7,30.18,ENE,58,0.0,0.0,93,0.00,,,0.01,0,Wunderground v.1.15,2013-09-28 00:56:00,
2013-09-27 21:02:00,55.5,53.5,30.18,ENE,58,0.0,0.0,93,0.00,,,0.01,0,Wunderground v.1.15,2013-09-28 01:02:00,
2013-09-27 21:08:00,55.4,53.7,30.18,ENE,58,0.0,0.0,94,0.00,,,0.01,0,Wunderground v.1.15,2013-09-28 01:08:00,
2013-09-27 21:14:00,55.5,53.8,30.18,ENE,58,0.0,0.0,94,0.00,,,0.01,0,Wunderground v.1.15,2013-09-28 01:14:00,
2013-09-27 21:20:00,55.4,53.7,30.18,ENE,58,0.0,0.0,94,0.00,,,0.01,0,Wunderground v.1.15,2013-09-28 01:20:00,
2013-09-27 21:26:00,55.3,53.6,30.19,ENE,58,0.0,0.0,94,0.00,,,0.01,0,Wunderground v.1.15,2013-09-28 01:26:00,
2013-09-27 21:31:00,55.1,53.4,30.19,ENE,58,0.0,0.0,94,0.00,,,0.01,0,Wunderground v.1.15,2013-09-28 01:31:00,
2013-09-27 21:36:00,55.0,53.3,30.19,ENE,58,0.0,0.0,94,0.00,,,0.01,0,Wunderground v.1.15,2013-09-28 01:36:00,
2013-09-27 21:42:00,54.8,53.1,30.19,ENE,58,0.0,0.0,94,0.00,,,0.01,0,Wunderground v.1.15,2013-09-28 01:42:00,
2013-09-27 21:47:00,54.6,52.9,30.19,ENE,58,0.0,0.0,94,0.00,,,0.01,0,Wunderground v.1.15,2013-09-28 01:47:00,
2013-09-27 21:53:00,54.6,52.9,30.20,ENE,58,0.0,0.0,94,0.00,,,0.01,0,Wunderground v.1.15,2013-09-28 01:53:00,
2013-09-27 21:59:00,54.4,52.7,30.20,ENE,58,0.0,0.0,94,0.00,,,0.01,0,Wunderground v.1.15,2013-09-28 01:59:00,
2013-09-27 22:04:00,54.3,52.9,30.20,ENE,58,0.0,0.0,95,0.00,,,0.01,0,Wunderground v.1.15,2013-09-28 02:04:00,
2013-09-27 22:09:00,54.2,52.5,30.20,ENE,58,0.0,0.0,94,0.00,,,0.01,0,Wunderground v.1.15,2013-09-28 02:09:00,
2013-09-27 22:14:00,54.1,52.7,30.20,ENE,58,0.0,0.0,95,0.00,,,0.01,0,Wunderground v.1.15,2013-09-28 02:14:00,
2013-09-27 22:20:00,54.0,52.6,30.20,ENE,58,0.0,0.0,95,0.00,,,0.01,0,Wunderground v.1.15,2013-09-28 02:20:00,
2013-09-27 22:26:00,53.9,52.5,30.20,ENE,58,0.0,0.0,95,0.00,,,0.01,0,Wunderground v.1.15,2013-09-28 02:26:00,
2013-09-27 22:31:00,53.6,52.2,30.20,ENE,58,0.0,0.0,95,0.00,,,0.01,0,Wunderground v.1.15,2013-09-28 02:31:00,
2013-09-27 22:37:00,53.5,52.1,30.20,ENE,58,0.0,0.0,95,0.00,,,0.01,0,Wunderground v.1.15,2013-09-28 02:37:00,
2013-09-27 22:43:00,53.4,52.0,30.20,ENE,58,0.0,0.0,95,0.00,,,0.01,0,Wunderground v.1.15,2013-09-28 02:43:00,
2013-09-27 22:48:00,53.3,51.9,30.20,ENE,58,0.0,0.0,95,0.00,,,0.01,0,Wunderground v.1.15,2013-09-28 02:48:00,
2013-09-27 22:54:00,53.2,51.8,30.20,ENE,58,0.0,0.0,95,0.00,,,0.01,0,Wunderground v.1.15,2013-09-28 02:54:00,
2013-09-27 22:59:00,53.0,51.6,30.20,ENE,58,0.0,0.0,95,0.00,,,0.01,0,Wunderground v.1.15,2013-09-28 02:59:00,
2013-09-27 23:04:00,52.9,51.5,30.20,ENE,58,0.0,0.0,95,0.00,,,0.01,0,Wunderground v.1.15,2013-09-28 03:04:00,
2013-09-27 23:10:00,52.7,51.3,30.20,ENE,58,0.0,0.0,95,0.00,,,0.01,0,Wunderground v.1.15,2013-09-28 03:10:00,
2013-09-27 23:16:00,52.6,51.2,30.20,ENE,58,0.0,0.0,95,0.00,,,0.01,0,Wunderground v.1.15,2013-09-28 03:16:00,
2013-09-27 23:22:00,52.5,51.1,30.20,ENE,58,0.0,0.0,95,0.00,,,0.01,0,Wunderground v.1.15,2013-09-28 03:22:00,
2013-09-27 23:28:00,52.3,50.9,30.20,ENE,58,0.0,0.0,95,0.00,,,0.01,0,Wunderground v.1.15,2013-09-28 03:28:00,
2013-09-27 23:33:00,52.2,50.8,30.20,ENE,58,0.0,0.0,95,0.00,,,0.01,0,Wunderground v.1.15,2013-09-28 03:33:00,
2013-09-27 23:39:00,52.0,50.6,30.20,ENE,58,0.0,0.0,95,0.00,,,0.01,0,Wunderground v.1.15,2013-09-28 03:39:00,
2013-09-27 23:44:00,51.9,50.5,30.20,ENE,58,0.0,0.0,95,0.00,,,0.01,0,Wunderground v.1.15,2013-09-28 03:44:00,
2013-09-27 23:50:00,51.8,50.4,30.21,ENE,58,0.0,0.0,95,0.00,,,0.01,0,Wunderground v.1.15,2013-09-28 03:50:00,
2013-09-27 23:56:00,51.7,50.3,30.21,ENE,58,0.0,0.0,95,0.00,,,0.01,0,Wunderground v.1.15,2013-09-28 03:56:00,